FENGYUN 1C DEB

Satellite information

Favourite Embed

Satellite Type and Status

DEBRISIN ORBIT

Key statistics

Satellite FENGYUN 1C DEB at a glance.

Uptime

9498

Days in orbit

Revolutions

≈ 14.2

Per day

Orbit

SSO

Sun Synchronous Orbit

Inclination

98.6

Latest

Satellite identification and parameters

Extended collection of information and parameters for FENGYUN 1C DEB.

Object identification

Identified? True

Debris? True

Object name: FENGYUN 1C DEB

International designator: 1999-025CSC

Object number (NORAD): 32134

Object ID (CCSDS): 32134

Country: PEOPLES REPUBLIC OF CHINA (PRC)

Current information (Y/N): Y

RCS size: SMALL

Orbital parameters

Period: 101.371 minutes

Inclination: 98.5928 deg

SMA: 7201.708 km

Apoapsis: 1013.367 km

Periapsis: 633.78 km

RAAN: 139.737 deg

Eccentricy: 0.026354

Argument of periapsis: 168.8425 deg

Mean anomaly: 222.4778 deg

Mean motion: 14.20526877 rev/day

Mean motion (dot): 0.00001409 rev/day2

B* drag term: 0.00047761 1/REarth

Two-line elements (TLE)

Creation date: May 11, 2025, 2:40 a.m.

Reference frame: TEME

Reference center: EARTH

Epoch: May 10, 2025, 11:33 p.m. UTC

TLE line 0: 0 FENGYUN 1C DEB

TLE line 1: 1 32134U 99025CSC 25130.98185157 .00001409 00000-0 47761-3 0 9995

TLE line 2: 2 32134 98.5928 139.7370 0263540 168.8425 222.4778 14.20526877920836

Live tracking on map

Real-time ground track for satellite FENGYUN 1C DEB.

In-orbit conjunctions

A list of the most updated potential collisions computed for object FENGYUN 1C DEB.

Target Orbit TCA Probability of collision Miss distance Type
COSMOS 2251 DEB LEO 2024-11-12 16:22:00 0.0005385867 126.0 (m) DEBRIS
METEOR 2-8 DEB LEO 2024-08-01 15:44:50 0.0003724079 49.0 (m) DEBRIS
SL-12 R/B(2) LEO 2024-06-19 02:16:38 0.000101872 94.0 (m) ROCKET BODY

Associated space launch

Chinese polar orbiting meteorological satellite

FENGYUN 1C DEB was lifted into orbit during the mission ‘Long March 4B | Feng Yun 1C’, on board a Long March 4B space rocket.

The launch took place on May 10, 1999, 1:33 a.m. from Launch Complex 7.

For more information about the launch, click the button.

Launch to space Long March 4B | Feng Yun 1C
Long March 4B | Feng Yun 1C

Agency: N/A

Status: Launch Successful

Launch date: May 10, 1999, 1:33 a.m. UTC

Rocket: Long March 4B

Launch pad: Launch Complex 7

Location: Taiyuan Satellite Launch Center, People's Republic of China

...

Latest news about this satellite

There are no fresh news available about this satellite. Check back as we update our databases every day.


Newsletter sign-up

Weekly statistics, charts and insights to help you stay on top of the space industry.